Regional Weather Roundup
Issued by NWS Midland/Odessa, TX

Skip options and go directly to product.
Home | Oldest Version | Previous Version | Current Version | All | Text Only | Save Text | Print | Product List | Glossary Off

Skip product version selection by date and time.   

544
ASUS44 KMAF 250910
RWRMAF
MIDLAND AREA WEATHER ROUNDUP
NATIONAL WEATHER SERVICE MIDLAND TX
400 AM CDT FRI APR 25 2014

...IN SOUTHWEST TEXAS AND SOUTHEAST NEW MEXICO...

CITY           SKY/WX    TMP DP  RH WIND       PRES   REMARKS
ALPINE         CLEAR     64  21  19 CALM      30.09F
ANDREWS        FAIR      58  30  34 S8        29.98S
ARTESIA        CLEAR     50  21  32 SW12      29.96S
BIG SPRING     CLEAR     58  31  35 SE7       29.98S
CARLSBAD       CLEAR     58  23  26 SE7       29.95F
DRYDEN           N/A     68  28  22 N8        29.94F
FORT STOCKTON  PTCLDY    60  26  27 CALM      29.97S
GUAD PASS      CLEAR     61  15  16 NE7       30.06F
HOBBS          CLEAR     55  25  30 S3        30.00S
MARFA          CLEAR     45  12  26 N3        30.08F
MIDLAND AIRPK  CLEAR     62  29  29 S8        29.97S
MIDLAND INTL   CLEAR     60  30  32 S10       29.97S
ODESSA         CLEAR     62  28  27 MISG      29.98S
PECOS          PTCLDY    54  36  50 E6        29.93F
PRESIDIO       FAIR      70  20  15 N8        29.94F
SEMINOLE       CLEAR     51  32  47 CALM      30.00S
SNYDER         CLEAR     56  29  35 CALM      29.98R
WINK           CLEAR     55  32  41 SE8       29.95F
$$
...OTHER STATIONS IN TEXAS...

CITY           SKY/WX    TMP DP  RH WIND       PRES   REMARKS
ABILENE        CLEAR     56  40  55 S6        29.96S
AMARILLO       CLEAR     52  22  30 S16       29.95F
AUSTIN         PTCLDY    56  55  97 CALM      29.93S
BROWNSVILLE    CLOUDY    73  72  96 CALM      29.86S
CORPUS CHRISTI CLOUDY    73  70  90 SE5       29.88F
DALLAS FTW     PTCLDY    60  39  45 E7        29.94S
DEL RIO        CLEAR     71  45  39 E6        29.89S
EL PASO        CLEAR     64  19  17 S8        29.96F
HOUSTON INT    CLOUDY    71  68  90 N5        29.92R
LUBBOCK        CLEAR     53  26  35 SE8       29.97S
SAN ANGELO     CLEAR     53  32  44 CALM      29.96F
SAN ANTONIO    MOCLDY    67  66  97 CALM      29.93S
WACO           CLEAR     53  45  74 NE7       29.94S
WICHITA FALLS  NOT AVBL
$$
...OTHER LOCATIONS IN NEW MEXICO...

CITY           SKY/WX    TMP DP  RH WIND       PRES   REMARKS
ALAMAGORDO     CLEAR     48  10  21 CALM      29.97F
ALBUQUERQUE    CLEAR     51   5  15 VRB5      30.01F
CANNON AFB     CLEAR     49  25  39 S6        29.98F
CLOVIS         CLEAR     45  25  45 SW7       30.01F
HOLLOMAN AFB   CLEAR     53  15  22 E5        29.96F
ROSWELL        CLEAR     49  20  31 S6        29.95F
RUIDOSO        CLEAR     52   9  17 S8        30.11F
SANTA FE       CLEAR     42  -5  13 N10       30.03F WCI  36
TRUTH OR CONSE CLEAR     53  12  19 W8        29.98F
TUCUMCARI      CLEAR     53  20  27 SW9       29.94F
$$

USA.gov is the U.S. government's official web portal to all federal, state and local government web resources and services.